, FL

(GMT )
Bonifay

Weather History for K1J0 - August, 2019

Change the Weather History Date:

Wednesday, August 14, 2019

  Actual Average (WUND) Record (WUND)
Temperature  
Mean Temperature 85 °F -  
Max Temperature 93 °F - - (-1)
Min Temperature 77 °F - - (-1)
Cooling Degree Days 20    
Growing Degree Days 35 (Base 50)    
Moisture  
Dew Point 76 °F    
Average Humidity 84    
Maximum Humidity 96    
Minimum Humidity 54    
Precipitation  
Precipitation 0.00 in - - ()
Sea Level Pressure  
Sea Level Pressure 29.83 in    
Wind  
Wind Speed 2 mph (SE)    
Max Wind Speed 10 mph    
Max Gust Speed 20 mph    
Visibility 8 miles    
Events Rain , Thunderstorm    
Averages and records for this station are not official NWS values.
T = Trace of Precipitation, MM = Missing Value Source: NWS Daily Summary

Daily Weather History Graph

Daily Weather History Graph

Search for Another Location

Airport or City:

Astronomy

Aug. 14, 2019 Rise Set
Actual Time 7:07 AM EDT 8:25 PM EDT
Civil Twilight 6:42 AM EDT 8:51 PM EDT
Nautical Twilight 6:12 AM EDT 9:21 PM EDT
Astronomical Twilight 5:40 AM EDT 9:52 PM EDT
Moon 8:14 PM EDT (8/14) 6:11 AM EDT (8/14)
Length of Visible Light 14h 08m
Length of Day
13h 17m
Waxing Gibbous, 99% of the Moon is Illuminated
Aug 14
Waxing Gibbous
Aug 15
Full
Aug 23
Last Quarter
Aug 30
New
Sep 5
First Quarter

Hourly Weather History & Observations

Time (EDT) Temp. Heat Index Dew Point Humidity Pressure Visibility Wind Dir Wind Speed Gust Speed Precip Events Conditions
12:58 AM 80.1 °F 85.8 °F 77.0 °F 90% 29.81 in 10.0 mi Calm Calm - N/A   Clear
1:58 AM 79.0 °F - 77.0 °F 94% 29.81 in 9.0 mi Calm Calm - N/A   Clear
3:58 AM 78.1 °F - 75.9 °F 93% 29.78 in 6.0 mi Calm Calm - N/A   Clear
4:58 AM 77.0 °F - 75.9 °F 96% 29.78 in 6.0 mi Calm Calm - N/A   Clear
5:58 AM 77.0 °F - 75.0 °F 94% 29.79 in 7.0 mi Calm Calm - N/A   Clear
6:58 AM 77.0 °F - 75.0 °F 94% 29.80 in 5.0 mi South 4.6 mph - N/A   Clear
7:06 AM 77.0 °F - 75.0 °F 94% 29.92 in 4.0 mi South 4.6 mph - N/A   Partly Cloudy
7:58 AM 78.1 °F - 75.9 °F 93% 29.81 in 6.0 mi Calm Calm - N/A   Clear
8:58 AM 82.0 °F 91.0 °F 78.1 °F 88% 29.81 in 9.0 mi Calm Calm - N/A   Clear
9:58 AM 87.1 °F 101.5 °F 79.0 °F 77% 29.80 in 10.0 mi East 3.5 mph - N/A   Clear
10:22 AM 89.1 °F 103.2 °F 78.1 °F 70% 29.92 in 10.0 mi Variable 3.5 mph - N/A   Mostly Cloudy
10:58 AM 89.1 °F 100.2 °F 75.9 °F 65% 29.81 in 10.0 mi Variable 3.5 mph - N/A   Partly Cloudy
11:58 AM 91.9 °F 103.9 °F 75.9 °F 59% 29.81 in 10.0 mi South 4.6 mph - N/A   Clear
12:58 PM 93.9 °F 106.9 °F 75.9 °F 56% 29.80 in 10.0 mi Variable 4.6 mph - N/A   Clear
1:58 PM 93.9 °F 105.4 °F 75.0 °F 54% 29.77 in 10.0 mi Variable 3.5 mph - N/A   Scattered Clouds
2:58 PM 93.9 °F 105.4 °F 75.0 °F 54% 29.73 in 10.0 mi Calm Calm - N/A   Mostly Cloudy
3:58 PM 93.9 °F 108.4 °F 77.0 °F 58% 29.72 in 10.0 mi SE 4.6 mph - N/A   Mostly Cloudy
4:58 PM 86.0 °F 95.1 °F 75.0 °F 70% 29.73 in 10.0 mi SW 10.4 mph 19.6 mph N/A Thunderstorm Thunderstorm
5:58 PM 79.0 °F - 75.0 °F 88% 29.79 in 6.0 mi NNW 5.8 mph - 0.00 in Rain , Thunderstorm Light Thunderstorms and Rain
6:15 PM 78.1 °F - 75.9 °F 93% 29.91 in 4.0 mi North 6.9 mph - N/A Rain , Thunderstorm Light Thunderstorms and Rain
6:58 PM 78.1 °F - 75.9 °F 93% 29.78 in 9.0 mi Calm Calm - N/A Thunderstorm Thunderstorm
7:42 PM 78.1 °F - 75.9 °F 93% 29.89 in 9.0 mi South 3.5 mph - N/A Thunderstorm Partly Cloudy
7:52 PM 78.1 °F - 77.0 °F 96% 29.90 in 9.0 mi Calm Calm - N/A   Partly Cloudy
7:58 PM 78.1 °F - 75.9 °F 93% 29.77 in 9.0 mi Calm Calm - N/A   Partly Cloudy
8:58 PM 78.1 °F - 75.9 °F 93% 29.79 in 9.0 mi East 3.5 mph - N/A   Clear
9:30 PM 78.1 °F - 75.9 °F 93% 29.93 in 8.0 mi Calm Calm - N/A   Partly Cloudy
9:44 PM 78.1 °F - 77.0 °F 96% 29.94 in 8.0 mi Calm Calm - N/A   Mostly Cloudy
9:58 PM 79.0 °F - 77.0 °F 94% 29.83 in 9.0 mi Calm Calm - N/A   Overcast
10:10 PM 79.0 °F - 75.9 °F 90% 29.97 in 10.0 mi Calm Calm - N/A   Overcast
10:31 PM 78.1 °F - 75.9 °F 93% 29.95 in 10.0 mi Calm Calm - N/A   Scattered Clouds
10:58 PM 77.0 °F - 75.0 °F 94% 29.84 in 10.0 mi Calm Calm - N/A   Partly Cloudy
11:58 PM 77.0 °F - 73.9 °F 90% 29.81 in 10.0 mi ENE 3.5 mph - N/A   Clear